Location: Dackenheim
(49.5215°N, 8.1854°E)
Time: 13:00:05
(UTC+00:00)

BlueWalker 3 - Pass Details

Date: 22 January 2026
Orbit: 451 x 460 km, 53.2° (Epoch: 17 February)

Event Time Altitude Azimuth Distance (km) Brightness Sun altitude
Rises 16:45:33 0° 184° (S) 2,445 5.8 -6.5°
Reaches altitude 10° 16:49:10 10° 145° (SE) 1,577 4.3 -7.1°
Maximum altitude 16:50:04 11° 131° (SE) 1,532 4.1 -7.2°
Drops below altitude 10° 16:50:57 10° 116° (ESE) 1,580 4.1 -7.3°
Enters shadow 16:52:20 - 97° (E) 1,812 4.2 -7.5°
